SCP
0 0 0 0 0 0 0 0 0 0 0 0 0 0 0 0 0 0 0 0 0 0 0 0 0 0 0 0 0 0 0 0
0 0 0 0 0 0 0 0 0 0 0 0 0 0 0 0 0 0 0 0 0 0 0 0 0 0 0 0 0 0 0 0
0 0 0 0 0 0 0 0 0 0 0 0 0 0 0 0 0 0 0 0 0 0 0 0 0 0 0 0 0 0 0 0
0 0 0 0 0 0 0 0 0 0 0 0 0 0 0 0 0 0 0 0 0 0 0 0 0 0 0 0 0 0 0 0
0 0 0 0 0 0 0 0 0 0 0 0 0 0 0 0 0 0 0 0 0 0 0 0 0 0 0 0 0 0 0 0
0 0 0 0 0 0 0 0 0 0 0 0 0 0 0 0 0 0 0 0 0 0 0 0 0 0 0 0 0 0 0 0
0 0 0 0 0 0 0 0 0 0 0 0 0 0 0 0 0 0 0 0 0 0 0 0 0 0 0 0 0 0 0 0
0 0 0 0 0 0 0 0 0 0 0 0 0 0 0 0 0 0 0 0 0 0 0 0 0 0 0 0 0 0 0 0
0 0 0 0 0 0 0 0 0 0 0 0 0 0 0 0 0 0 0 0 0 0 0 0 0 0 0 0 0 0 0 0
0 0 0 0 0 0 0 0 0 0 0 0 0 0 0 0 0 0 0 0 0 0 0 0 0 0 0 0 0 0 0 0
0 0 0 0 0 0 0 0 0 0 0 0 0 0 0 0 0 0 0 0 0 0 0 0 0 0 0 0 0 0 0 0
0 0 0 0 0 0 0 0 0 0 0 0 0 0 0 0 0 0 0 0 0 0 0 0 0 0 0 0 0 0 0 0
0 0 0 0 0 0 0 0 0 0 0 0 0 0 0 0 0 0 0 0 0 0 0 0 0 0 0 0 0 0 0 0
0 0 0 0 0 0 0 0 0 0 0 0 0 0 0 0 0 0 0 0 0 0 0 0 0 0 0 0 0 0 0 0
0 0 0 0 0 0 0 0 0 0 0 0 0 0 0 0 0 0 0 0 0 0 0 0 0 0 0 0 0 0 0 0
0 0 0 0 0 0 0 0 0 0 0 0 0 0 0 0 0 0 0 0 0 0 0 0 0 0 0 0 0 0 0 0
0 0 0 0 0 0 0 0 0 0 0 0 0 0 0 0 0 0 0 0 0 0 0 0 0 0 0 0 0 0 0 0
0 0 0 0 0 0 0 0 0 0 0 0 0 0 0 0 0 0 0 0 0 0 0 0 0 0 0 0 0 0 0 0
0 0 0 0 0 0 0 0 0 0 0 0 0 0 0 0 0 0 0 0 0 0 0 0 0 0 0 0 0 0 0 0
0 0 0 0 0 0 0 0 0 0 0 0 0 0 0 0 0 0 0 0 0 0 0 0 0 0 0 0 0 0 0 0
Wind_Speed_500mb
21 36 47 53 59 65 72 77 80 82 86 89 92 92 92 90 88 83 84 84 76 73 77 77 74 69 64 56 53 53 51 52
1 4 10 26 42 54 61 65 69 73 81 87 88 88 87 88 82 77 82 84 80 72 73 84 81 76 70 64 55 55 56 55
24 17 15 18 13 27 44 54 58 67 73 79 83 87 91 89 83 80 82 82 81 77 71 82 88 85 74 72 58 59 60 58
34 24 26 28 27 23 24 37 48 56 65 74 82 88 90 90 86 80 78 81 80 79 67 84 79 84 82 72 61 59 61 58
25 21 25 33 36 35 31 30 34 45 54 59 70 78 78 74 70 69 70 73 69 76 71 73 90 85 80 73 64 62 61 57
32 31 34 37 42 35 36 35 33 34 38 43 50 57 58 58 57 57 62 66 69 71 70 77 77 94 80 71 67 66 63 59
32 39 43 47 46 37 33 32 31 31 31 34 39 45 50 50 52 55 60 64 70 76 72 71 79 89 75 71 65 65 62 59
43 41 43 40 34 31 31 35 34 30 30 33 36 39 40 44 49 52 58 60 59 63 68 69 79 77 74 65 62 60 62 57
37 35 30 32 30 29 27 28 29 29 30 31 34 37 39 42 46 49 48 49 49 50 58 67 73 77 70 64 64 60 62 58
20 17 17 19 18 19 18 20 25 28 27 29 33 36 39 37 38 40 41 41 43 48 57 63 71 70 66 62 61 64 61 56
7 4 6 8 10 11 11 12 14 18 23 29 32 35 36 34 35 37 36 39 43 47 55 58 64 66 58 56 61 60 60 59
6 7 8 8 8 9 10 13 16 20 23 25 28 30 31 33 35 36 38 40 41 45 50 61 62 59 54 61 60 61 58 59
12 12 12 12 11 12 12 14 16 17 20 23 24 27 30 33 33 37 43 44 45 47 46 53 56 56 58 60 62 60 60 58
12 13 12 12 14 16 17 18 19 20 20 19 19 20 21 25 29 36 40 44 47 49 52 53 55 57 64 66 63 62 58 56
10 9 10 12 13 15 17 20 23 24 25 25 22 20 20 25 28 32 35 39 44 49 52 56 59 61 64 65 62 65 62 57
9 8 11 14 14 14 14 15 16 19 20 22 24 23 22 22 23 24 27 33 39 43 47 53 59 59 59 61 65 63 60 60
15 14 16 17 18 19 19 20 22 24 25 27 28 28 29 28 26 28 29 30 34 40 45 50 54 53 50 54 56 54 55 65
15 15 17 18 19 21 23 25 26 27 28 28 28 29 30 31 33 33 28 29 29 30 35 45 48 51 50 47 53 53 61 76
17 16 16 18 17 19 21 23 24 27 29 32 33 33 33 33 33 33 34 34 31 27 33 35 39 40 41 46 52 60 67 74
14 12 13 13 15 18 20 22 25 27 29 31 33 34 36 36 36 35 34 34 34 35 34 30 35 36 40 47 58 61 66 73
Wind_Direction_500mb
238 231 235 243 247 247 248 248 249 245 245 246 248 250 251 250 249 245 246 248 253 248 244 243 242 241 241 243 252 259 245 240
167 315 275 252 246 246 246 247 249 249 248 248 249 250 250 251 246 243 245 247 255 255 249 241 239 239 238 242 248 255 241 233
6 353 342 339 299 253 253 253 251 249 247 244 244 245 246 244 241 243 245 248 251 259 256 244 238 236 240 240 245 249 233 230
336 335 336 330 318 304 276 258 254 251 250 247 242 241 243 245 246 245 245 247 254 254 253 250 250 238 240 240 247 240 231 231
328 334 337 334 323 305 300 287 269 259 255 251 249 247 247 249 250 249 248 251 252 252 257 249 244 243 246 235 243 231 230 232
331 333 331 331 330 316 308 301 294 284 272 261 253 255 253 253 253 252 248 248 250 253 253 252 244 240 237 237 242 231 229 232
316 317 317 316 315 308 304 302 290 280 275 266 258 256 258 256 256 254 251 250 249 247 250 243 247 244 234 241 238 227 231 234
306 306 307 307 304 297 296 292 291 282 269 262 263 260 260 264 265 263 262 260 255 251 246 247 245 239 243 236 226 233 234 237
290 296 294 294 297 289 289 288 282 274 267 265 266 269 270 269 269 268 264 262 258 252 247 244 240 244 239 238 231 230 236 237
291 297 294 292 295 293 303 303 297 289 279 274 273 275 275 276 276 276 273 266 258 256 249 246 238 236 237 235 229 231 235 239
271 293 310 316 311 299 297 295 288 278 271 265 265 267 271 275 274 273 268 267 260 259 252 240 233 238 234 233 235 235 238 238
105 71 40 15 351 330 321 312 302 289 279 270 265 267 270 271 270 268 268 263 261 259 254 247 240 237 237 238 241 243 242 243
104 77 53 37 25 20 4 353 334 318 311 304 296 287 279 275 272 266 267 267 264 260 256 248 244 243 240 240 244 246 245 246
104 86 67 43 20 8 359 347 337 331 327 319 308 298 289 282 279 276 271 271 269 265 261 255 250 246 243 244 248 249 250 249
100 86 68 54 28 7 357 346 338 336 334 329 327 329 319 304 294 285 282 280 278 276 271 264 256 253 248 248 253 255 253 250
120 88 61 45 30 19 5 354 349 347 344 338 335 335 331 326 320 310 301 291 288 284 279 275 271 269 261 258 260 259 257 251
93 74 63 49 33 26 20 14 12 11 8 5 360 353 344 338 333 330 323 312 302 294 287 282 280 276 269 265 265 261 260 258
87 77 70 60 54 44 36 32 27 22 20 18 14 8 0 353 345 339 334 325 317 306 297 293 289 282 273 262 267 265 261 255
103 91 70 52 42 43 34 32 28 22 19 16 15 13 12 8 2 355 347 342 336 323 312 303 296 283 269 254 251 252 251 251
102 85 73 66 57 44 39 28 24 23 19 16 14 11 7 5 1 357 353 346 340 336 332 323 306 287 266 258 255 253 251 252
Wind_Speed_850mb
21 36 47 53 59 65 72 77 80 82 86 89 92 92 92 90 88 83 84 84 76 73 77 77 74 69 64 56 53 53 51 52
1 4 10 26 42 54 61 65 69 73 81 87 88 88 87 88 82 77 82 84 80 72 73 84 81 76 70 64 55 55 56 55
24 17 15 18 13 27 44 54 58 67 73 79 83 87 91 89 83 80 82 82 81 77 71 82 88 85 74 72 58 59 60 58
34 24 26 28 27 23 24 37 48 56 65 74 82 88 90 90 86 80 78 81 80 79 67 84 79 84 82 72 61 59 61 58
25 21 25 33 36 35 31 30 34 45 54 59 70 78 78 74 70 69 70 73 69 76 71 73 90 85 80 73 64 62 61 57
32 31 34 37 42 35 36 35 33 34 38 43 50 57 58 58 57 57 62 66 69 71 70 77 77 94 80 71 67 66 63 59
32 39 43 47 46 37 33 32 31 31 31 34 39 45 50 50 52 55 60 64 70 76 72 71 79 89 75 71 65 65 62 59
43 41 43 40 34 31 31 35 34 30 30 33 36 39 40 44 49 52 58 60 59 63 68 69 79 77 74 65 62 60 62 57
37 35 30 32 30 29 27 28 29 29 30 31 34 37 39 42 46 49 48 49 49 50 58 67 73 77 70 64 64 60 62 58
20 17 17 19 18 19 18 20 25 28 27 29 33 36 39 37 38 40 41 41 43 48 57 63 71 70 66 62 61 64 61 56
7 4 6 8 10 11 11 12 14 18 23 29 32 35 36 34 35 37 36 39 43 47 55 58 64 66 58 56 61 60 60 59
6 7 8 8 8 9 10 13 16 20 23 25 28 30 31 33 35 36 38 40 41 45 50 61 62 59 54 61 60 61 58 59
12 12 12 12 11 12 12 14 16 17 20 23 24 27 30 33 33 37 43 44 45 47 46 53 56 56 58 60 62 60 60 58
12 13 12 12 14 16 17 18 19 20 20 19 19 20 21 25 29 36 40 44 47 49 52 53 55 57 64 66 63 62 58 56
10 9 10 12 13 15 17 20 23 24 25 25 22 20 20 25 28 32 35 39 44 49 52 56 59 61 64 65 62 65 62 57
9 8 11 14 14 14 14 15 16 19 20 22 24 23 22 22 23 24 27 33 39 43 47 53 59 59 59 61 65 63 60 60
15 14 16 17 18 19 19 20 22 24 25 27 28 28 29 28 26 28 29 30 34 40 45 50 54 53 50 54 56 54 55 65
15 15 17 18 19 21 23 25 26 27 28 28 28 29 30 31 33 33 28 29 29 30 35 45 48 51 50 47 53 53 61 76
17 16 16 18 17 19 21 23 24 27 29 32 33 33 33 33 33 33 34 34 31 27 33 35 39 40 41 46 52 60 67 74
14 12 13 13 15 18 20 22 25 27 29 31 33 34 36 36 36 35 34 34 34 35 34 30 35 36 40 47 58 61 66 73
Wind_Direction_850mb
238 231 235 243 247 247 248 248 249 245 245 246 248 250 251 250 249 245 246 248 253 248 244 243 242 241 241 243 252 259 245 240
167 315 275 252 246 246 246 247 249 249 248 248 249 250 250 251 246 243 245 247 255 255 249 241 239 239 238 242 248 255 241 233
6 353 342 339 299 253 253 253 251 249 247 244 244 245 246 244 241 243 245 248 251 259 256 244 238 236 240 240 245 249 233 230
336 335 336 330 318 304 276 258 254 251 250 247 242 241 243 245 246 245 245 247 254 254 253 250 250 238 240 240 247 240 231 231
328 334 337 334 323 305 300 287 269 259 255 251 249 247 247 249 250 249 248 251 252 252 257 249 244 243 246 235 243 231 230 232
331 333 331 331 330 316 308 301 294 284 272 261 253 255 253 253 253 252 248 248 250 253 253 252 244 240 237 237 242 231 229 232
316 317 317 316 315 308 304 302 290 280 275 266 258 256 258 256 256 254 251 250 249 247 250 243 247 244 234 241 238 227 231 234
306 306 307 307 304 297 296 292 291 282 269 262 263 260 260 264 265 263 262 260 255 251 246 247 245 239 243 236 226 233 234 237
290 296 294 294 297 289 289 288 282 274 267 265 266 269 270 269 269 268 264 262 258 252 247 244 240 244 239 238 231 230 236 237
291 297 294 292 295 293 303 303 297 289 279 274 273 275 275 276 276 276 273 266 258 256 249 246 238 236 237 235 229 231 235 239
271 293 310 316 311 299 297 295 288 278 271 265 265 267 271 275 274 273 268 267 260 259 252 240 233 238 234 233 235 235 238 238
105 71 40 15 351 330 321 312 302 289 279 270 265 267 270 271 270 268 268 263 261 259 254 247 240 237 237 238 241 243 242 243
104 77 53 37 25 20 4 353 334 318 311 304 296 287 279 275 272 266 267 267 264 260 256 248 244 243 240 240 244 246 245 246
104 86 67 43 20 8 359 347 337 331 327 319 308 298 289 282 279 276 271 271 269 265 261 255 250 246 243 244 248 249 250 249
100 86 68 54 28 7 357 346 338 336 334 329 327 329 319 304 294 285 282 280 278 276 271 264 256 253 248 248 253 255 253 250
120 88 61 45 30 19 5 354 349 347 344 338 335 335 331 326 320 310 301 291 288 284 279 275 271 269 261 258 260 259 257 251
93 74 63 49 33 26 20 14 12 11 8 5 360 353 344 338 333 330 323 312 302 294 287 282 280 276 269 265 265 261 260 258
87 77 70 60 54 44 36 32 27 22 20 18 14 8 0 353 345 339 334 325 317 306 297 293 289 282 273 262 267 265 261 255
103 91 70 52 42 43 34 32 28 22 19 16 15 13 12 8 2 355 347 342 336 323 312 303 296 283 269 254 251 252 251 251
102 85 73 66 57 44 39 28 24 23 19 16 14 11 7 5 1 357 353 346 340 336 332 323 306 287 266 258 255 253 251 252